{"data":{"norad_id":40015,"epoch":"2026-05-25T00:16:32.718720Z","epoch_age_seconds":64219,"freshness":"FRESH","line1":"1 40015U 14033F   26145.01148980  .00000845  00000+0  10335-3 0  9991","line2":"2 40015  97.6400 308.9889 0034306  71.9682 288.5266 14.85333099644187","mean_motion":14.85333099,"eccentricity":0.0034306,"inclination_deg":97.64,"raan_deg":308.9889,"arg_perigee_deg":71.9682,"mean_anomaly_deg":288.5266,"bstar":0.00010335,"rev_number":64418,"period_min":96.947950663018,"perigee_km":588.55830361544,"apogee_km":636.52274022885,"semimajor_km":6990.6775219221,"source":"CELESTRAK","updated_at":"2026-05-25T13:38:12.785158Z"}}